QPF
0.00 0.00 0.00 0.00 0.00 0.00 0.00 0.00 0.00 0.00 0.00 0.00 0.00 0.00 0.00 0.00 0.00 0.00 0.00 0.00 0.00 0.00 0.00 0.00 0.00 0.00 0.00 0.00 0.00 0.00 0.00 0.00 0.00 0.00 0.00 0.00 0.00 0.00 0.00 0.00 0.00 0.00 0.00 0.00 0.00 0.00 0.00 0.00 0.00
0.00 0.00 0.00 0.00 0.00 0.00 0.00 0.00 0.00 0.00 0.00 0.00 0.00 0.00 0.00 0.00 0.00 0.00 0.00 0.00 0.00 0.00 0.00 0.00 0.00 0.00 0.00 0.00 0.00 0.00 0.00 0.00 0.00 0.00 0.00 0.01 0.00 0.00 0.00 0.00 0.00 0.01 0.00 0.00 0.00 0.00 0.00 0.00 0.00
0.00 0.00 0.00 0.00 0.00 0.00 0.00 0.00 0.00 0.00 0.00 0.00 0.00 0.00 0.00 0.00 0.00 0.00 0.00 0.00 0.00 0.00 0.00 0.00 0.00 0.00 0.00 0.00 0.00 0.00 0.00 0.01 0.00 0.00 0.00 0.00 0.00 0.00 0.00 0.00 0.00 0.00 0.00 0.00 0.00 0.00 0.00 0.00 0.00
0.00 0.00 0.00 0.00 0.00 0.00 0.00 0.00 0.00 0.00 0.00 0.00 0.00 0.00 0.00 0.00 0.00 0.00 0.00 0.00 0.00 0.00 0.00 0.00 0.00 0.00 0.00 0.00 0.00 0.00 0.00 0.01 0.00 0.00 0.00 0.00 0.00 0.00 0.00 0.00 0.00 0.00 0.00 0.00 0.00 0.00 0.00 0.00 0.00
0.00 0.00 0.00 0.00 0.00 0.00 0.00 0.00 0.00 0.00 0.00 0.00 0.00 0.00 0.00 0.00 0.00 0.00 0.00 0.00 0.00 0.00 0.00 0.00 0.00 0.00 0.00 0.00 0.00 0.00 0.00 0.00 0.00 0.00 0.00 0.00 0.00 0.01 0.00 0.00 0.00 0.00 0.00 0.00 0.00 0.00 0.00 0.00 0.00
0.00 0.00 0.00 0.00 0.00 0.00 0.00 0.00 0.00 0.00 0.00 0.00 0.00 0.00 0.00 0.00 0.00 0.00 0.00 0.00 0.00 0.00 0.00 0.00 0.00 0.00 0.00 0.00 0.00 0.00 0.00 0.00 0.00 0.00 0.00 0.00 0.00 0.01 0.01 0.00 0.00 0.00 0.00 0.00 0.00 0.00 0.00 0.00 0.00
0.00 0.00 0.00 0.00 0.00 0.00 0.00 0.00 0.00 0.00 0.00 0.00 0.00 0.00 0.00 0.00 0.00 0.00 0.00 0.00 0.00 0.00 0.00 0.00 0.00 0.00 0.00 0.00 0.00 0.00 0.00 0.00 0.00 0.00 0.00 0.00 0.00 0.00 0.02 0.00 0.00 0.00 0.00 0.00 0.00 0.00 0.00 0.00 0.00
0.00 0.00 0.00 0.00 0.00 0.00 0.00 0.00 0.00 0.00 0.00 0.00 0.00 0.00 0.00 0.00 0.00 0.00 0.00 0.00 0.00 0.00 0.00 0.00 0.00 0.00 0.00 0.00 0.00 0.00 0.00 0.00 0.00 0.00 0.00 0.00 0.00 0.00 0.03 0.03 0.01 0.00 0.00 0.00 0.00 0.00 0.00 0.00 0.00
0.00 0.00 0.00 0.00 0.00 0.00 0.00 0.00 0.00 0.00 0.00 0.00 0.00 0.00 0.00 0.00 0.00 0.00 0.00 0.00 0.00 0.00 0.00 0.00 0.00 0.00 0.00 0.00 0.00 0.00 0.00 0.00 0.00 0.00 0.00 0.00 0.00 0.00 0.01 0.02 0.03 0.00 0.00 0.00 0.00 0.00 0.01 0.00 0.00
0.00 0.00 0.00 0.00 0.00 0.00 0.00 0.00 0.00 0.00 0.00 0.00 0.00 0.00 0.00 0.00 0.00 0.00 0.00 0.00 0.00 0.00 0.00 0.00 0.00 0.00 0.00 0.00 0.00 0.00 0.00 0.00 0.00 0.00 0.00 0.00 0.00 0.00 0.00 0.01 0.03 0.06 0.07 0.03 0.01 0.00 0.03 0.05 0.00
0.00 0.00 0.00 0.00 0.00 0.00 0.00 0.00 0.00 0.00 0.00 0.00 0.00 0.00 0.00 0.00 0.00 0.00 0.00 0.00 0.00 0.00 0.00 0.00 0.00 0.00 0.00 0.00 0.00 0.00 0.00 0.00 0.00 0.00 0.00 0.00 0.00 0.00 0.00 0.00 0.02 0.04 0.07 0.09 0.03 0.00 0.01 0.03 0.01
0.00 0.00 0.00 0.00 0.00 0.00 0.00 0.00 0.00 0.00 0.00 0.00 0.00 0.00 0.00 0.00 0.00 0.00 0.00 0.00 0.00 0.00 0.00 0.00 0.00 0.00 0.00 0.00 0.00 0.00 0.00 0.00 0.00 0.00 0.00 0.00 0.00 0.00 0.00 0.00 0.05 0.08 0.06 0.03 0.01 0.00 0.00 0.00 0.00
0.00 0.00 0.00 0.00 0.00 0.00 0.00 0.00 0.00 0.00 0.00 0.00 0.00 0.00 0.00 0.00 0.00 0.00 0.00 0.00 0.00 0.00 0.00 0.00 0.01 0.01 0.01 0.00 0.00 0.00 0.00 0.00 0.00 0.00 0.00 0.00 0.00 0.00 0.00 0.00 0.03 0.07 0.12 0.07 0.03 0.01 0.00 0.00 0.00
0.00 0.00 0.00 0.00 0.00 0.00 0.00 0.00 0.00 0.00 0.00 0.00 0.00 0.00 0.00 0.00 0.00 0.00 0.00 0.00 0.00 0.00 0.00 0.00 0.00 0.02 0.02 0.01 0.01 0.01 0.01 0.03 0.03 0.02 0.00 0.00 0.00 0.00 0.00 0.01 0.03 0.01 0.03 0.07 0.05 0.04 0.02 0.03 0.03
0.00 0.00 0.00 0.00 0.00 0.00 0.00 0.00 0.00 0.00 0.00 0.00 0.00 0.00 0.00 0.00 0.00 0.00 0.00 0.00 0.00 0.00 0.00 0.00 0.00 0.00 0.00 0.01 0.04 0.07 0.12 0.17 0.20 0.14 0.05 0.02 0.02 0.02 0.01 0.01 0.01 0.00 0.03 0.06 0.05 0.04 0.02 0.01 0.03
0.00 0.00 0.00 0.00 0.00 0.00 0.00 0.00 0.00 0.00 0.00 0.00 0.00 0.00 0.00 0.00 0.00 0.00 0.00 0.00 0.00 0.00 0.00 0.00 0.00 0.00 0.00 0.00 0.04 0.17 0.31 0.36 0.18 0.13 0.05 0.05 0.04 0.04 0.01 0.03 0.01 0.03 0.05 0.04 0.03 0.03 0.05 0.08 0.09
0.00 0.00 0.00 0.00 0.00 0.00 0.00 0.00 0.00 0.00 0.00 0.00 0.00 0.00 0.00 0.00 0.00 0.00 0.00 0.00 0.00 0.00 0.00 0.00 0.00 0.00 0.00 0.00 0.00 0.01 0.04 0.09 0.07 0.03 0.05 0.07 0.06 0.07 0.08 0.11 0.02 0.00 0.01 0.03 0.03 0.02 0.09 0.10 0.05
0.00 0.00 0.00 0.00 0.00 0.00 0.00 0.00 0.00 0.00 0.00 0.00 0.00 0.00 0.00 0.00 0.00 0.00 0.00 0.00 0.00 0.00 0.00 0.00 0.00 0.00 0.00 0.00 0.00 0.00 0.00 0.00 0.01 0.00 0.01 0.03 0.03 0.06 0.13 0.13 0.07 0.04 0.02 0.02 0.01 0.03 0.15 0.13 0.04
0.00 0.00 0.00 0.00 0.00 0.00 0.00 0.00 0.00 0.00 0.00 0.00 0.00 0.00 0.00 0.00 0.00 0.00 0.00 0.00 0.00 0.00 0.00 0.00 0.00 0.00 0.00 0.00 0.00 0.00 0.00 0.00 0.00 0.00 0.00 0.00 0.06 0.23 0.22 0.19 0.20 0.10 0.04 0.06 0.07 0.15 0.12 0.08 0.06
0.00 0.00 0.00 0.00 0.00 0.00 0.00 0.00 0.00 0.00 0.00 0.00 0.00 0.00 0.00 0.00 0.00 0.00 0.00 0.00 0.00 0.00 0.00 0.00 0.00 0.00 0.00 0.00 0.00 0.00 0.00 0.00 0.00 0.00 0.01 0.04 0.11 0.09 0.06 0.16 0.33 0.34 0.24 0.20 0.14 0.16 0.05 0.05 0.02
0.00 0.00 0.00 0.00 0.00 0.00 0.00 0.00 0.00 0.00 0.00 0.00 0.00 0.00 0.00 0.00 0.00 0.00 0.00 0.00 0.00 0.00 0.00 0.00 0.00 0.00 0.00 0.00 0.00 0.00 0.00 0.00 0.00 0.00 0.04 0.13 0.12 0.08 0.16 0.83 0.75 0.60 0.34 0.18 0.15 0.09 0.01 0.00 0.00
0.00 0.00 0.00 0.00 0.00 0.00 0.00 0.00 0.00 0.00 0.00 0.00 0.00 0.00 0.00 0.00 0.00 0.00 0.00 0.00 0.00 0.00 0.00 0.00 0.00 0.00 0.00 0.00 0.00 0.00 0.00 0.00 0.00 0.01 0.02 0.11 0.10 0.06 0.09 0.16 0.23 0.23 0.20 0.17 0.19 0.09 0.02 0.00 0.00
0.00 0.00 0.00 0.00 0.00 0.00 0.00 0.00 0.00 0.00 0.00 0.00 0.00 0.00 0.00 0.00 0.00 0.00 0.00 0.00 0.00 0.00 0.00 0.00 0.00 0.00 0.00 0.00 0.00 0.00 0.00 0.00 0.00 0.00 0.04 0.08 0.12 0.10 0.08 0.05 0.03 0.11 0.23 0.19 0.20 0.07 0.01 0.00 0.00
0.00 0.00 0.00 0.00 0.00 0.00 0.00 0.00 0.00 0.00 0.00 0.00 0.00 0.00 0.00 0.00 0.00 0.00 0.00 0.00 0.00 0.00 0.00 0.00 0.00 0.00 0.00 0.00 0.00 0.00 0.00 0.00 0.00 0.00 0.05 0.13 0.07 0.08 0.06 0.05 0.10 0.18 0.24 0.13 0.07 0.04 0.03 0.00 0.00
0.00 0.00 0.00 0.00 0.00 0.00 0.00 0.00 0.00 0.00 0.00 0.00 0.00 0.00 0.00 0.00 0.00 0.00 0.01 0.01 0.01 0.01 0.01 0.00 0.00 0.00 0.00 0.00 0.00 0.00 0.00 0.00 0.00 0.01 0.03 0.10 0.03 0.11 0.10 0.12 0.34 0.50 0.49 0.31 0.12 0.05 0.01 0.00 0.00
0.00 0.00 0.00 0.00 0.00 0.00 0.00 0.00 0.00 0.00 0.00 0.00 0.00 0.00 0.00 0.00 0.00 0.01 0.04 0.07 0.08 0.07 0.05 0.02 0.00 0.00 0.00 0.00 0.00 0.00 0.00 0.00 0.00 0.01 0.01 0.07 0.09 0.17 0.14 0.14 0.66 0.48 0.58 0.52 0.23 0.11 0.05 0.00 0.00
0.00 0.00 0.00 0.00 0.00 0.00 0.00 0.00 0.00 0.00 0.00 0.00 0.00 0.00 0.00 0.00 0.00 0.00 0.00 0.00 0.00 0.00 0.00 0.00 0.00 0.00 0.00 0.00 0.00 0.00 0.00 0.00 0.01 0.02 0.05 0.06 0.04 0.07 0.08 0.05 0.22 0.76 0.65 0.39 0.28 0.12 0.03 0.00 0.00
0.00 0.00 0.00 0.00 0.01 0.01 0.00 0.00 0.01 0.02 0.03 0.02 0.00 0.01 0.01 0.00 0.00 0.00 0.00 0.00 0.00 0.00 0.00 0.00 0.00 0.00 0.00 0.00 0.00 0.00 0.00 0.00 0.01 0.02 0.12 0.14 0.14 0.11 0.07 0.03 0.05 0.46 0.62 0.42 0.26 0.10 0.01 0.00 0.00
0.00 0.00 0.00 0.00 0.01 0.05 0.03 0.01 0.02 0.02 0.01 0.00 0.00 0.00 0.00 0.00 0.00 0.00 0.00 0.00 0.00 0.00 0.00 0.00 0.00 0.00 0.00 0.00 0.00 0.00 0.00 0.00 0.01 0.02 0.08 0.22 0.12 0.04 0.03 0.00 0.01 0.13 0.42 0.47 0.21 0.06 0.00 0.00 0.00
0.00 0.00 0.00 0.01 0.01 0.01 0.03 0.02 0.01 0.00 0.00 0.00 0.00 0.00 0.00 0.00 0.00 0.00 0.00 0.00 0.00 0.00 0.00 0.00 0.00 0.00 0.00 0.00 0.00 0.00 0.00 0.00 0.01 0.01 0.01 0.06 0.08 0.02 0.01 0.00 0.02 0.16 0.25 0.33 0.13 0.02 0.00 0.00 0.00
MSLP
1010.51 1010.39 1010.66 1011.30 1012.61 1012.49 1011.40 1009.82 1008.51 1007.63 1006.92 1006.39 1006.28 1006.54 1007.35 1007.94 1008.48 1009.41 1008.93 1009.12 1009.32 1009.77 1009.90 1010.21 1010.61 1010.77 1010.99 1011.16 1011.39 1011.54 1011.50 1011.53 1011.54 1011.72 1011.86 1012.04 1012.15 1012.40 1012.53 1012.62 1012.56 1012.49 1012.51 1012.56 1012.61 1012.64 1012.62 1012.55 1012.56
1010.51 1010.60 1011.29 1012.11 1012.63 1012.40 1011.22 1009.60 1008.36 1007.38 1006.70 1006.30 1006.34 1007.03 1007.45 1008.20 1008.43 1008.76 1008.93 1009.13 1009.27 1009.60 1009.96 1010.25 1010.56 1010.86 1011.08 1011.20 1011.44 1011.57 1011.68 1011.75 1011.85 1011.91 1011.92 1012.00 1012.03 1012.21 1012.36 1012.51 1012.68 1012.65 1012.69 1012.83 1012.86 1012.89 1012.80 1012.75 1012.77
1010.48 1010.65 1011.84 1012.41 1012.48 1011.93 1010.66 1009.22 1008.18 1007.29 1006.66 1006.47 1006.63 1007.03 1007.60 1008.30 1008.50 1008.34 1008.06 1008.41 1009.03 1009.41 1009.57 1009.81 1010.04 1010.30 1010.56 1010.68 1010.97 1011.19 1011.49 1011.69 1011.92 1012.11 1012.23 1012.31 1012.30 1012.36 1012.41 1012.57 1012.67 1012.71 1012.75 1012.86 1012.92 1013.04 1012.98 1012.96 1012.90
1010.73 1011.55 1012.47 1012.22 1011.80 1010.42 1009.54 1008.66 1007.86 1007.43 1006.73 1006.63 1006.95 1007.71 1007.94 1007.95 1008.08 1008.12 1008.20 1008.53 1008.70 1009.01 1009.05 1009.31 1009.58 1009.98 1010.37 1010.68 1010.91 1011.19 1011.42 1011.45 1011.69 1011.85 1012.17 1012.45 1012.62 1012.64 1012.72 1012.75 1012.82 1012.90 1012.88 1012.99 1013.12 1013.19 1013.17 1013.19 1013.04
1011.11 1012.02 1012.54 1012.22 1011.20 1010.03 1009.28 1008.59 1007.90 1007.94 1007.74 1007.63 1007.46 1008.16 1008.43 1008.25 1008.06 1008.22 1008.48 1008.76 1008.85 1009.11 1009.24 1009.43 1009.61 1009.89 1010.10 1010.37 1010.65 1010.80 1011.06 1011.32 1011.64 1011.87 1011.98 1012.26 1012.57 1012.74 1012.93 1012.88 1012.89 1013.01 1012.97 1013.00 1013.21 1013.41 1013.34 1013.27 1013.20
1011.87 1012.51 1012.81 1012.17 1010.92 1009.99 1009.30 1008.70 1008.09 1008.04 1007.93 1007.93 1008.11 1008.27 1008.54 1008.21 1008.28 1008.34 1008.38 1008.86 1008.91 1008.87 1008.97 1009.16 1009.39 1009.70 1010.01 1010.41 1010.68 1010.87 1011.10 1011.26 1011.43 1011.55 1011.72 1011.95 1012.19 1012.23 1012.53 1012.82 1013.14 1013.16 1013.14 1013.17 1013.30 1013.20 1013.31 1013.28 1013.29
1012.08 1012.85 1012.64 1011.87 1010.84 1010.00 1009.25 1008.63 1008.54 1008.41 1008.17 1008.03 1008.06 1008.52 1008.50 1008.25 1007.86 1007.82 1007.80 1008.15 1008.52 1008.77 1008.99 1009.17 1009.43 1009.59 1009.82 1010.09 1010.34 1010.59 1010.86 1011.09 1011.33 1011.57 1011.76 1011.95 1012.02 1012.18 1012.37 1012.50 1012.77 1013.03 1013.24 1013.36 1013.32 1013.26 1013.23 1013.16 1013.23
1012.00 1012.77 1012.49 1011.75 1010.91 1010.08 1009.35 1008.80 1008.52 1008.41 1008.27 1007.92 1007.85 1008.51 1008.49 1007.83 1007.67 1007.78 1008.05 1008.28 1008.53 1008.71 1008.90 1009.14 1009.21 1009.42 1009.66 1009.97 1010.24 1010.46 1010.62 1010.75 1010.89 1011.27 1011.62 1011.73 1011.89 1012.03 1012.23 1012.56 1012.74 1012.85 1013.12 1013.41 1013.58 1013.59 1013.45 1013.31 1013.18
1011.63 1012.53 1012.37 1011.31 1010.62 1010.11 1009.65 1009.43 1008.93 1008.56 1008.48 1008.40 1008.24 1008.34 1007.93 1007.74 1007.87 1008.01 1008.37 1008.70 1008.90 1008.93 1008.84 1008.91 1009.08 1009.09 1009.35 1009.62 1009.81 1010.04 1010.23 1010.51 1010.79 1011.04 1011.32 1011.59 1011.86 1012.15 1012.27 1012.48 1012.66 1012.76 1012.81 1012.98 1013.29 1013.50 1013.44 1013.42 1013.21
1011.90 1012.46 1011.70 1010.77 1010.29 1010.09 1009.91 1009.87 1009.69 1009.36 1009.19 1008.85 1008.60 1008.36 1008.10 1008.14 1008.21 1008.44 1008.71 1009.00 1009.11 1009.04 1008.98 1008.95 1009.11 1009.24 1009.39 1009.48 1009.60 1009.73 1009.93 1010.24 1010.47 1010.62 1010.78 1011.20 1011.62 1011.78 1011.91 1012.04 1012.29 1012.43 1012.50 1012.76 1013.01 1013.02 1013.27 1013.40 1013.50
1011.63 1011.77 1011.23 1010.53 1010.14 1009.94 1009.93 1009.97 1009.94 1009.90 1009.76 1009.23 1008.95 1008.80 1008.63 1008.56 1008.72 1008.92 1008.95 1009.11 1009.14 1009.12 1009.18 1009.08 1008.87 1009.06 1009.32 1009.40 1009.55 1009.65 1009.76 1009.89 1010.03 1010.17 1010.48 1010.81 1011.11 1011.51 1011.75 1011.83 1011.99 1012.20 1012.38 1012.50 1012.61 1012.94 1013.10 1013.32 1013.36
1011.48 1011.10 1010.92 1010.45 1010.14 1010.08 1010.01 1009.94 1010.02 1009.99 1009.60 1009.08 1008.93 1008.83 1008.72 1008.63 1008.68 1008.90 1009.41 1009.23 1009.07 1008.95 1008.86 1008.53 1009.05 1008.91 1008.88 1009.01 1009.29 1009.44 1009.86 1009.75 1009.81 1009.83 1010.18 1010.52 1010.62 1010.92 1011.32 1011.50 1011.54 1011.92 1012.11 1012.42 1012.38 1012.66 1013.06 1013.19 1013.27
1011.35 1011.13 1010.79 1010.41 1010.30 1010.17 1010.04 1010.02 1010.17 1009.62 1009.23 1008.98 1008.96 1008.84 1008.75 1008.70 1008.89 1009.30 1009.85 1009.79 1009.71 1009.45 1009.24 1009.08 1008.82 1009.22 1009.34 1009.05 1009.16 1009.34 1009.41 1009.43 1009.42 1009.85 1009.96 1010.25 1010.46 1010.66 1010.77 1010.96 1011.08 1011.51 1011.98 1012.21 1012.48 1012.65 1012.92 1013.22 1013.21
1011.55 1011.35 1011.03 1010.54 1010.12 1010.14 1010.21 1010.02 1010.37 1009.28 1009.03 1009.10 1008.96 1008.78 1008.59 1008.84 1009.17 1009.69 1010.02 1010.07 1010.11 1009.92 1009.75 1009.39 1009.38 1009.28 1009.24 1009.50 1009.19 1009.07 1009.22 1009.14 1009.38 1009.55 1009.30 1009.36 1009.94 1009.91 1010.19 1010.30 1010.44 1010.88 1011.34 1011.75 1012.14 1012.60 1012.84 1013.14 1013.34
1011.67 1011.69 1011.23 1010.49 1010.21 1009.97 1009.96 1010.25 1010.03 1008.95 1009.17 1009.21 1009.10 1008.96 1008.99 1009.20 1009.46 1009.92 1010.24 1010.49 1010.59 1010.51 1010.23 1009.82 1009.57 1009.62 1009.67 1009.65 1009.35 1009.21 1009.22 1009.35 1009.63 1009.38 1009.38 1008.93 1009.12 1009.01 1009.42 1009.70 1010.10 1010.15 1010.86 1011.21 1011.52 1012.12 1012.49 1013.04 1013.16
1012.33 1012.42 1012.14 1010.82 1010.37 1010.09 1010.19 1010.14 1009.68 1009.17 1009.38 1009.40 1009.20 1009.22 1009.34 1009.87 1010.47 1010.56 1010.55 1010.53 1010.75 1010.82 1010.74 1010.41 1010.07 1009.82 1009.67 1009.61 1009.50 1009.41 1009.14 1008.84 1009.07 1009.03 1008.66 1008.51 1008.56 1008.50 1008.76 1009.45 1009.70 1009.87 1010.70 1011.12 1011.40 1011.89 1012.52 1012.94 1013.17
1013.45 1013.32 1012.80 1011.74 1010.76 1010.68 1010.90 1010.57 1010.16 1009.71 1009.73 1009.71 1009.69 1009.67 1010.12 1010.49 1010.89 1010.91 1010.75 1010.84 1010.79 1010.81 1010.81 1010.73 1010.46 1010.27 1010.11 1009.59 1009.33 1009.16 1009.13 1009.52 1009.72 1008.79 1008.45 1007.93 1008.16 1008.14 1008.49 1009.33 1009.58 1009.50 1010.11 1010.74 1011.23 1011.66 1012.08 1012.73 1013.15
1014.14 1013.91 1013.20 1012.55 1011.65 1011.30 1011.23 1010.60 1010.75 1010.44 1010.25 1010.26 1010.48 1010.33 1010.79 1011.43 1011.71 1011.56 1011.23 1011.21 1011.15 1011.15 1011.05 1011.07 1011.06 1010.46 1010.31 1009.97 1009.50 1009.02 1008.86 1008.79 1008.78 1008.56 1008.05 1007.54 1007.34 1007.42 1008.13 1008.86 1009.01 1009.49 1010.02 1010.56 1011.03 1011.30 1012.02 1012.54 1012.99
1014.00 1013.93 1013.53 1012.78 1012.19 1011.85 1011.45 1011.00 1011.06 1010.90 1010.72 1010.76 1010.95 1011.05 1011.65 1012.40 1012.72 1012.51 1012.05 1011.97 1011.98 1011.86 1011.68 1011.31 1010.93 1011.06 1010.63 1010.15 1009.84 1009.33 1008.91 1008.38 1007.90 1007.50 1007.29 1007.32 1007.09 1007.61 1008.18 1008.58 1009.12 1009.19 1010.00 1010.17 1010.61 1011.27 1011.80 1012.63 1013.08
1014.09 1013.94 1013.51 1012.82 1012.58 1012.64 1012.00 1011.19 1011.13 1011.01 1011.16 1011.49 1011.91 1012.53 1013.15 1013.75 1013.65 1013.36 1012.94 1012.65 1012.56 1012.38 1011.95 1011.57 1011.50 1011.40 1011.14 1010.68 1010.18 1009.79 1009.21 1008.46 1007.81 1007.09 1006.99 1006.89 1007.26 1007.20 1007.68 1008.20 1008.90 1009.11 1010.20 1010.56 1010.50 1010.73 1011.36 1012.33 1013.05
1014.42 1014.42 1014.01 1014.01 1013.40 1013.06 1012.65 1011.57 1011.50 1011.54 1011.63 1012.38 1013.29 1013.87 1014.59 1014.83 1014.54 1014.13 1013.67 1013.34 1012.95 1012.81 1012.54 1012.19 1012.00 1011.56 1011.29 1011.06 1010.60 1009.81 1008.87 1008.57 1007.82 1006.97 1006.62 1006.83 1006.97 1006.82 1007.27 1007.84 1008.17 1008.31 1009.44 1010.42 1010.48 1009.91 1010.34 1011.59 1012.64
1015.05 1015.16 1015.00 1014.79 1014.73 1014.53 1014.04 1012.31 1012.86 1012.43 1013.08 1014.28 1015.10 1015.46 1015.75 1015.64 1015.21 1014.80 1014.20 1013.82 1013.56 1013.24 1012.84 1012.51 1012.12 1011.68 1011.30 1011.09 1010.77 1010.30 1009.34 1008.53 1007.97 1007.43 1006.75 1006.69 1006.72 1006.77 1006.76 1007.17 1007.84 1007.82 1008.12 1009.84 1010.17 1009.70 1010.36 1011.26 1012.59
1016.13 1016.08 1015.98 1015.64 1015.62 1015.51 1015.13 1015.24 1013.80 1013.92 1015.29 1015.96 1016.41 1016.75 1016.62 1016.34 1015.97 1015.53 1015.06 1014.53 1014.13 1013.64 1013.47 1013.12 1012.60 1011.98 1011.64 1010.99 1010.80 1010.28 1009.48 1008.81 1007.64 1006.92 1006.18 1006.13 1006.41 1006.56 1006.41 1006.83 1007.41 1007.47 1008.46 1009.10 1009.57 1009.75 1010.47 1010.78 1011.65
1016.57 1016.47 1016.31 1016.40 1016.68 1016.67 1016.40 1016.98 1015.65 1015.83 1016.30 1016.68 1017.21 1017.07 1016.81 1016.52 1016.06 1015.61 1015.14 1014.62 1014.42 1014.02 1013.75 1013.66 1012.97 1012.49 1011.43 1010.90 1010.73 1010.30 1009.30 1008.38 1007.37 1006.59 1006.01 1005.98 1006.17 1006.39 1006.50 1006.82 1007.06 1007.71 1007.85 1008.54 1009.04 1009.45 1010.19 1010.67 1011.05
1017.27 1017.76 1018.47 1018.06 1018.26 1017.84 1017.34 1017.53 1017.10 1017.12 1017.08 1017.24 1017.46 1017.48 1017.12 1016.60 1016.13 1015.67 1015.22 1014.66 1014.30 1013.88 1013.64 1013.78 1012.99 1012.49 1011.21 1011.08 1010.33 1010.12 1009.02 1008.03 1007.18 1006.61 1005.88 1005.87 1005.95 1006.24 1006.45 1007.02 1007.18 1007.63 1007.87 1008.29 1008.63 1009.14 1009.87 1010.40 1011.21
1018.59 1019.34 1020.58 1020.03 1019.60 1019.00 1018.95 1018.01 1017.46 1017.97 1017.68 1017.78 1017.63 1017.48 1017.14 1016.84 1016.34 1016.09 1015.69 1015.18 1014.58 1014.19 1014.00 1014.57 1013.07 1012.51 1011.66 1010.56 1010.40 1009.84 1008.57 1007.56 1006.73 1006.34 1005.86 1005.34 1005.49 1005.35 1005.79 1006.39 1006.60 1007.12 1008.10 1007.98 1009.26 1009.27 1010.12 1010.46 1011.34
1019.32 1020.08 1020.64 1020.89 1020.34 1020.03 1019.23 1018.17 1018.21 1018.24 1018.25 1018.01 1017.55 1017.03 1016.76 1016.40 1016.30 1016.41 1016.00 1015.18 1014.63 1014.08 1013.92 1013.67 1012.85 1012.33 1011.71 1010.87 1010.44 1009.38 1008.08 1007.13 1006.43 1005.97 1005.92 1005.78 1005.47 1005.23 1005.62 1005.70 1006.21 1007.46 1006.93 1008.36 1009.35 1009.37 1010.09 1010.78 1011.52
1020.47 1020.77 1020.94 1021.48 1021.33 1020.69 1019.74 1019.18 1018.73 1018.86 1019.12 1018.37 1017.61 1017.26 1016.93 1016.55 1016.38 1016.30 1015.80 1015.35 1014.97 1014.24 1013.82 1013.50 1013.01 1012.76 1012.04 1011.12 1010.17 1009.10 1007.70 1006.90 1006.28 1006.01 1005.93 1005.94 1005.78 1005.58 1005.70 1005.78 1005.92 1006.51 1007.03 1008.38 1009.50 1009.78 1010.30 1011.08 1011.91
1021.15 1021.44 1021.84 1022.35 1022.35 1021.94 1021.10 1019.70 1019.25 1019.06 1018.66 1018.69 1017.97 1017.35 1016.87 1016.50 1016.27 1016.12 1015.78 1015.48 1015.10 1014.46 1014.18 1013.79 1013.37 1012.68 1011.83 1011.12 1010.40 1008.68 1007.52 1007.01 1006.39 1006.11 1006.16 1006.26 1006.26 1005.86 1005.72 1005.83 1005.62 1005.76 1006.38 1008.19 1009.51 1009.81 1010.41 1011.22 1012.29
1021.96 1022.31 1022.94 1023.80 1023.60 1023.26 1022.57 1019.71 1018.69 1018.68 1018.50 1018.26 1017.65 1016.96 1016.81 1016.34 1016.24 1016.17 1015.71 1015.34 1015.04 1014.71 1014.34 1014.09 1013.77 1012.49 1011.81 1010.77 1009.95 1008.64 1007.83 1007.21 1006.76 1006.27 1006.26 1006.24 1006.15 1006.22 1006.13 1005.89 1005.91 1006.44 1007.30 1007.67 1009.33 1009.72 1010.55 1011.59 1012.58
Thickness
5788 5791 5790 5777 5743 5734 5737 5760 5775 5774 5781 5797 5800 5792 5781 5781 5772 5752 5795 5795 5795 5790 5787 5784 5779 5777 5774 5773 5770 5768 5769 5768 5767 5764 5762 5759 5757 5754 5752 5749 5748 5748 5746 5744 5742 5741 5740 5740 5739
5792 5792 5780 5758 5733 5722 5732 5761 5767 5781 5792 5801 5798 5790 5785 5772 5785 5786 5789 5793 5792 5788 5784 5781 5777 5773 5771 5770 5766 5765 5764 5762 5761 5760 5758 5756 5755 5752 5750 5748 5745 5744 5742 5739 5738 5737 5737 5736 5735
5794 5791 5765 5744 5725 5728 5737 5766 5773 5787 5795 5797 5792 5797 5789 5777 5785 5790 5802 5800 5792 5787 5784 5782 5781 5777 5774 5773 5769 5766 5762 5759 5757 5754 5752 5750 5749 5748 5747 5744 5742 5741 5739 5737 5735 5733 5732 5732 5731
5786 5775 5759 5738 5744 5759 5763 5772 5782 5782 5792 5796 5792 5777 5792 5799 5792 5797 5803 5800 5794 5790 5788 5785 5782 5778 5774 5769 5767 5763 5760 5760 5756 5754 5750 5746 5743 5742 5740 5740 5738 5736 5735 5733 5731 5729 5727 5726 5727
5781 5762 5739 5738 5747 5765 5770 5777 5781 5772 5775 5777 5782 5770 5773 5791 5798 5798 5798 5797 5793 5790 5787 5785 5782 5778 5774 5772 5768 5766 5762 5757 5753 5750 5747 5743 5739 5737 5734 5734 5733 5731 5731 5730 5726 5723 5722 5722 5722
5760 5754 5730 5731 5749 5765 5768 5772 5777 5773 5773 5776 5771 5770 5773 5793 5790 5791 5793 5790 5791 5788 5787 5784 5781 5777 5773 5769 5765 5762 5759 5756 5753 5751 5748 5744 5740 5737 5734 5730 5726 5725 5725 5723 5721 5721 5719 5718 5717
5757 5740 5734 5742 5745 5754 5764 5774 5768 5767 5769 5769 5777 5758 5773 5784 5795 5796 5793 5790 5788 5785 5781 5778 5775 5773 5771 5767 5764 5760 5757 5754 5750 5747 5744 5742 5739 5736 5732 5729 5725 5723 5720 5717 5716 5716 5715 5715 5713
5754 5741 5740 5740 5734 5745 5764 5769 5773 5768 5764 5781 5780 5752 5757 5781 5791 5790 5787 5786 5785 5782 5778 5774 5772 5770 5767 5763 5759 5756 5755 5753 5750 5745 5741 5740 5738 5734 5731 5726 5722 5719 5714 5711 5709 5707 5709 5709 5710
5762 5728 5724 5740 5742 5747 5757 5754 5767 5774 5765 5767 5769 5764 5772 5780 5782 5775 5772 5772 5773 5774 5775 5774 5771 5769 5765 5763 5759 5756 5753 5749 5746 5742 5739 5735 5732 5728 5725 5721 5717 5716 5715 5712 5707 5704 5704 5704 5706
5742 5721 5735 5753 5754 5748 5752 5749 5750 5753 5749 5753 5757 5765 5770 5770 5767 5762 5757 5755 5758 5760 5764 5766 5764 5761 5758 5757 5755 5753 5750 5746 5743 5740 5738 5734 5729 5727 5724 5721 5716 5713 5712 5709 5706 5705 5701 5699 5699
5745 5728 5744 5752 5755 5754 5748 5745 5750 5744 5738 5746 5750 5755 5758 5758 5755 5754 5753 5752 5754 5758 5757 5757 5757 5753 5750 5748 5747 5746 5744 5742 5738 5736 5734 5731 5726 5721 5718 5717 5714 5710 5706 5707 5706 5701 5699 5697 5695
5737 5745 5746 5748 5751 5749 5743 5746 5739 5740 5741 5753 5752 5755 5755 5750 5747 5746 5741 5746 5748 5749 5750 5755 5750 5749 5748 5743 5739 5737 5735 5734 5732 5730 5727 5724 5723 5720 5715 5711 5710 5706 5704 5701 5703 5701 5696 5694 5691
5738 5740 5743 5746 5742 5742 5744 5736 5736 5735 5746 5750 5748 5747 5746 5745 5740 5736 5733 5734 5736 5736 5735 5735 5739 5736 5734 5735 5733 5730 5728 5727 5723 5718 5717 5715 5715 5712 5712 5709 5708 5702 5698 5696 5695 5693 5690 5687 5687
5735 5734 5732 5737 5738 5737 5733 5731 5729 5737 5743 5740 5740 5739 5741 5736 5732 5727 5721 5720 5722 5723 5719 5723 5721 5723 5724 5720 5723 5723 5720 5717 5712 5709 5715 5715 5708 5712 5709 5709 5709 5703 5697 5691 5686 5684 5683 5681 5679
5732 5720 5721 5729 5730 5728 5730 5720 5716 5738 5735 5729 5730 5730 5728 5725 5722 5716 5713 5708 5708 5710 5708 5707 5710 5708 5707 5708 5710 5711 5708 5705 5703 5702 5700 5708 5707 5709 5708 5707 5702 5702 5693 5689 5688 5682 5680 5676 5675
5713 5710 5694 5721 5725 5725 5719 5697 5720 5727 5720 5715 5716 5716 5716 5706 5702 5702 5701 5699 5694 5692 5690 5689 5689 5693 5696 5696 5696 5698 5697 5698 5696 5690 5699 5704 5703 5705 5706 5699 5695 5694 5684 5680 5682 5678 5672 5668 5666
5690 5681 5688 5697 5714 5710 5703 5691 5708 5710 5706 5704 5698 5697 5695 5686 5683 5684 5686 5684 5681 5676 5675 5675 5674 5669 5673 5682 5685 5686 5687 5680 5679 5687 5690 5700 5699 5700 5702 5690 5686 5686 5680 5674 5673 5672 5668 5664 5661
5674 5670 5677 5678 5694 5691 5681 5686 5683 5686 5685 5681 5676 5675 5667 5658 5660 5664 5666 5664 5662 5656 5655 5655 5654 5658 5653 5659 5667 5673 5676 5675 5676 5680 5686 5692 5696 5695 5692 5685 5682 5677 5673 5667 5670 5668 5661 5657 5655
5676 5667 5663 5672 5679 5670 5671 5674 5673 5670 5671 5667 5666 5659 5644 5636 5637 5638 5640 5640 5638 5634 5632 5635 5636 5637 5641 5641 5645 5655 5661 5667 5673 5678 5683 5681 5683 5682 5679 5678 5673 5673 5663 5664 5661 5657 5654 5649 5648
5667 5658 5655 5664 5667 5656 5653 5662 5659 5660 5658 5648 5638 5627 5620 5611 5610 5614 5619 5619 5613 5611 5614 5618 5617 5616 5620 5624 5626 5631 5643 5652 5660 5668 5670 5672 5671 5675 5672 5670 5667 5663 5652 5648 5650 5652 5650 5644 5640
5653 5642 5642 5635 5639 5642 5632 5641 5646 5646 5642 5622 5608 5600 5590 5586 5586 5588 5591 5591 5592 5591 5591 5595 5597 5601 5602 5606 5609 5616 5627 5635 5645 5655 5659 5657 5661 5667 5665 5661 5662 5657 5651 5640 5641 5649 5651 5642 5636
5626 5631 5627 5621 5609 5598 5609 5595 5619 5613 5608 5587 5568 5563 5559 5560 5563 5564 5568 5571 5571 5572 5575 5578 5581 5585 5588 5591 5595 5599 5608 5618 5626 5635 5645 5647 5651 5653 5657 5656 5650 5653 5653 5638 5635 5641 5641 5638 5628
5610 5608 5604 5606 5594 5582 5588 5559 5582 5585 5563 5561 5543 5539 5533 5531 5534 5538 5541 5547 5550 5554 5556 5558 5562 5569 5574 5578 5580 5586 5596 5603 5614 5626 5638 5640 5639 5643 5650 5650 5646 5648 5639 5634 5632 5633 5634 5636 5632
5600 5592 5588 5581 5572 5553 5567 5539 5547 5550 5546 5534 5523 5520 5517 5517 5518 5521 5526 5531 5531 5535 5540 5541 5545 5553 5563 5568 5569 5574 5585 5595 5604 5616 5626 5629 5632 5634 5638 5640 5643 5638 5633 5633 5633 5630 5627 5630 5633
5574 5556 5524 5534 5540 5547 5546 5524 5526 5516 5512 5509 5502 5495 5498 5500 5502 5505 5511 5512 5515 5519 5520 5524 5532 5537 5552 5555 5562 5564 5577 5588 5596 5605 5616 5620 5626 5628 5629 5626 5628 5629 5630 5628 5627 5627 5621 5626 5625
5545 5530 5491 5489 5492 5504 5516 5495 5510 5484 5485 5484 5482 5479 5483 5483 5487 5490 5491 5492 5497 5500 5503 5496 5514 5522 5535 5549 5550 5557 5571 5582 5591 5599 5607 5616 5620 5625 5625 5623 5622 5623 5617 5612 5611 5616 5614 5622 5617
5532 5510 5506 5481 5494 5457 5481 5500 5482 5476 5465 5469 5471 5474 5471 5478 5480 5476 5476 5481 5486 5490 5494 5497 5508 5515 5524 5534 5539 5553 5567 5578 5586 5594 5598 5604 5611 5619 5616 5619 5617 5610 5611 5610 5606 5611 5611 5613 5610
5505 5495 5473 5468 5450 5452 5463 5464 5469 5455 5447 5458 5465 5464 5462 5465 5467 5466 5466 5470 5471 5476 5485 5490 5496 5500 5510 5522 5533 5547 5563 5572 5580 5586 5592 5596 5601 5608 5609 5611 5614 5612 5610 5602 5600 5604 5606 5604 5601
5477 5468 5468 5453 5443 5446 5437 5449 5452 5445 5450 5445 5443 5448 5452 5457 5455 5453 5458 5461 5462 5466 5469 5476 5482 5491 5505 5514 5520 5541 5556 5564 5573 5579 5584 5588 5591 5598 5601 5606 5612 5613 5610 5600 5595 5600 5601 5600 5593
5469 5460 5443 5410 5411 5413 5400 5430 5456 5434 5433 5433 5435 5439 5441 5446 5444 5441 5446 5452 5455 5457 5459 5464 5470 5485 5496 5509 5518 5532 5545 5555 5562 5571 5577 5582 5585 5587 5593 5600 5604 5602 5597 5598 5593 5598 5598 5591 5586